Location: Carrières
(48.9495°N, 2.0407°E)
Time: 18:29:54
(UTC+00:00)

Cosmos 1606 Rocket - Pass Details

Date: 20 June 2024
Orbit: 599 x 628 km, 82.5° (Epoch: 15 July)

Event Time Altitude Azimuth Distance (km) Brightness Sun altitude
Rises 00:19:10 0° 4° (N) 2,924 8.8 -17.4°
Reaches altitude 10° 00:22:15 10° 26° (NNE) 2,006 7.3 -17.3°
Maximum altitude 00:24:58 16° 64° (ENE) 1,647 6.1 -17.3°
Drops below altitude 10° 00:27:40 10° 102° (ESE) 1,987 6.1 -17.2°
Enters shadow 00:29:57 - 121° (ESE) 2,640 6.6 -17.2°
